FW2458 Weather Reports


Display with metric or nautical units.
time (UTC)temp
F
wind
direction
speed
MPH
gust
MPH
rain 1hr
in
rain 24hr
in
rain mn
in
humidity
%
barometer
mb
20260504034447 45 210 0.0 1.0 0.00 0.00 0.00 66 1012.3
20260504033930 45 210 0.0 1.0 0.00 0.00 0.00 67 1012.3
20260504033423 45 210 0.0 1.0 0.00 0.00 0.00 68 1012.3
20260504032913 45 210 0.0 1.0 0.00 0.00 0.00 67 1012.3
20260504032407 45 210 0.0 0.0 0.00 0.00 0.00 67 1012.3
20260504032349 46 210 0.0 0.0 0.00 0.00 0.00 65 1012.5
20260504031351 46 210 0.0 0.0 0.00 0.00 0.00 65 1012.3
20260504030844 46 210 0.0 0.0 0.00 0.00 0.00 65 1012.3
20260504030338 46 210 0.0 0.0 0.00 0.00 0.00 67 1012.2
20260504030308 46 210 0.0 0.0 0.00 0.00 0.00 67 1012.3
20260504025544 46 210 0.0 0.0 0.00 0.00 0.00 66 1012.2
20260504024817 46 210 0.0 0.0 0.00 0.00 0.00 64 1012.3
20260504024306 47 210 0.0 2.0 0.00 0.00 0.00 64 1012.2
20260504023800 47 210 0.0 2.0 0.00 0.00 0.00 63 1012.1
20260504023255 47 210 0.0 2.0 0.00 0.00 0.00 62 1012.2
20260504022745 47 210 0.0 2.0 0.00 0.00 0.00 62 1012.2
20260504022239 47 210 0.0 1.0 0.00 0.00 0.00 61 1012.2
20260504021733 47 210 0.0 1.0 0.00 0.00 0.00 61 1012.2
20260504021223 47 210 0.0 1.0 0.00 0.00 0.00 60 1012.2
20260504020717 48 210 0.0 1.0 0.00 0.00 0.00 59 1012.2
20260504020209 48 210 0.0 1.0 0.00 0.00 0.00 59 1012.2
20260504015700 48 210 0.0 1.0 0.00 0.00 0.00 58 1012.2
20260504015155 48 210 0.0 1.0 0.00 0.00 0.00 57 1012.2
20260504014648 49 210 0.0 1.0 0.00 0.00 0.00 56 1012.1
20260504014144 49 210 0.0 1.0 0.00 0.00 0.00 56 1012.0
20260504013644 49 210 0.0 1.0 0.00 0.00 0.00 55 1012.0
20260504013143 49 210 0.0 1.0 0.00 0.00 0.00 55 1011.9
20260504012641 50 210 0.0 1.0 0.00 0.00 0.00 55 1011.9
20260504012153 50 210 0.0 0.0 0.00 0.00 0.00 53 1011.9
20260504011654 51 210 0.0 0.0 0.00 0.00 0.00 51 1011.8
20260504011140 51 210 0.0 2.0 0.00 0.00 0.00 51 1011.8
20260504010640 51 210 0.0 2.0 0.00 0.00 0.00 50 1011.8
20260504010136 52 210 0.0 2.0 0.00 0.00 0.00 49 1011.6
20260504005634 52 210 0.0 2.0 0.00 0.00 0.00 49 1011.6
20260504005132 53 210 0.0 1.0 0.00 0.00 0.00 47 1011.6
20260504004630 53 210 0.0 1.0 0.00 0.00 0.00 46 1011.5
20260504004130 54 210 0.0 0.0 0.00 0.00 0.00 45 1011.4
20260504003630 54 210 0.0 0.0 0.00 0.00 0.00 45 1011.4
20260504003132 55 210 0.0 1.0 0.00 0.00 0.00 43 1011.3
20260504002629 55 210 0.0 1.0 0.00 0.00 0.00 42 1011.2
20260504002123 55 210 0.0 1.0 0.00 0.00 0.00 41 1011.1
20260504001617 56 210 0.0 3.0 0.00 0.00 0.00 40 1011.0
20260504001113 56 210 0.0 3.0 0.00 0.00 0.00 39 1010.9
20260504000610 56 210 0.0 3.0 0.00 0.00 0.00 39 1010.9
20260504000112 56 210 0.0 3.0 0.00 0.00 0.00 38 1010.8
20260503235839 57 195 0.0 2.0 0.00 0.00 0.00 38 1010.8
20260503235338 57 195 0.0 3.0 0.00 0.00 0.00 37 1010.7
20260503234607 57 197 0.0 3.0 0.00 0.00 0.00 38 1010.6
20260503234106 57 205 0.0 2.0 0.00 0.00 0.00 37 1010.6
20260503233603 58 205 0.0 2.0 0.00 0.00 0.00 37 1010.6
20260503233102 58 205 0.0 2.0 0.00 0.00 0.00 36 1010.5
20260503232603 58 205 0.0 2.0 0.00 0.00 0.00 35 1010.5
20260503232104 58 205 0.0 6.0 0.00 0.00 0.00 36 1010.5
20260503231604 58 205 1.0 6.0 0.00 0.00 0.00 35 1010.4
20260503231104 59 146 1.0 6.0 0.00 0.00 0.00 35 1010.4
20260503230617 59 115 1.0 6.0 0.00 0.00 0.00 34 1010.3
20260503230108 59 223 1.0 7.0 0.00 0.00 0.00 34 1010.3
20260503225600 59 205 0.0 7.0 0.00 0.00 0.00 34 1010.3
20260503225057 59 213 1.0 7.0 0.00 0.00 0.00 34 1010.2
20260503224556 59 211 1.0 7.0 0.00 0.00 0.00 33 1010.2
20260503224054 59 105 1.0 7.0 0.00 0.00 0.00 34 1010.1
20260503223552 59 55 1.0 6.0 0.00 0.00 0.00 33 1010.1
20260503223532 59 64 1.0 8.0 0.00 0.00 0.00 34 1010.1
20260503222551 59 142 1.0 8.0 0.00 0.00 0.00 33 1010.1
20260503222051 59 69 2.0 7.0 0.00 0.00 0.00 33 1010.2
20260503221551 59 213 2.0 9.0 0.00 0.00 0.00 32 1010.1
20260503221051 59 52 2.0 9.0 0.00 0.00 0.00 33 1010.3
20260503220814 59 207 3.0 9.0 0.00 0.00 0.00 32 1010.2
20260503215550 59 59 2.0 7.0 0.00 0.00 0.00 33 1010.1
20260503215309 59 205 1.0 7.0 0.00 0.00 0.00 32 1010.3
20260503214548 59 204 2.0 7.0 0.00 0.00 0.00 33 1010.1
20260503214049 59 180 2.0 7.0 0.00 0.00 0.00 32 1010.2
20260503213545 59 57 2.0 12.0 0.00 0.00 0.00 33 1010.2
20260503213044 59 69 2.0 12.0 0.00 0.00 0.00 32 1010.1
20260503212815 59 43 3.0 12.0 0.00 0.00 0.00 33 1010.0
20260503212044 59 85 3.0 12.0 0.00 0.00 0.00 32 1010.0
20260503211544 59 106 3.0 10.0 0.00 0.00 0.00 34 1010.0
20260503211044 59 65 2.0 10.0 0.00 0.00 0.00 32 1010.0
20260503210545 59 182 2.0 9.0 0.00 0.00 0.00 35 1010.1
20260503210044 59 74 2.0 14.0 0.00 0.00 0.00 32 1010.0
20260503205546 58 184 2.0 14.0 0.00 0.00 0.00 36 1010.0
20260503205045 58 194 3.0 14.0 0.00 0.00 0.00 33 1010.1
20260503204545 58 109 3.0 14.0 0.00 0.00 0.00 35 1009.9
20260503204045 58 173 2.0 11.0 0.00 0.00 0.00 34 1010.1
20260503203546 59 187 3.0 11.0 0.00 0.00 0.00 32 1010.0
20260503203045 59 173 3.0 13.0 0.00 0.00 0.00 34 1010.1
20260503202544 59 206 3.0 14.0 0.00 0.00 0.00 34 1010.1
20260503202046 58 79 3.0 14.0 0.00 0.00 0.00 36 1010.2
20260503201546 58 192 3.0 14.0 0.00 0.00 0.00 36 1010.1
20260503201044 58 105 2.0 14.0 0.00 0.00 0.00 36 1010.4
20260503200544 58 67 2.0 12.0 0.00 0.00 0.00 35 1010.2
20260503200044 58 215 3.0 12.0 0.00 0.00 0.00 36 1010.3
20260503195545 58 94 2.0 12.0 0.00 0.00 0.00 34 1010.4
20260503195044 58 150 2.0 7.0 0.00 0.00 0.00 34 1010.5
20260503194544 58 200 3.0 11.0 0.00 0.00 0.00 34 1010.6
20260503194313 58 29 2.0 11.0 0.00 0.00 0.00 35 1010.6
20260503193811 58 206 2.0 8.0 0.00 0.00 0.00 35 1010.5
20260503193300 58 162 3.0 10.0 0.00 0.00 0.00 36 1010.5
20260503192544 58 221 3.0 11.0 0.00 0.00 0.00 38 1010.9
20260503192236 58 58 3.0 11.0 0.00 0.00 0.00 39 1010.9
20260503192126 59 38 3.0 11.0 0.00 0.00 0.00 36 1010.6
20260503191638 59 153 3.0 11.0 0.00 0.00 0.00 35 1010.9
20260503190543 58 51 2.0 11.0 0.00 0.00 0.00 35 1010.8
20260503190042 58 26 3.0 9.0 0.00 0.00 0.00 38 1011.0
20260503185542 58 69 3.0 10.0 0.00 0.00 0.00 38 1011.0
20260503185044 58 28 2.0 10.0 0.00 0.00 0.00 37 1011.1
20260503184542 58 63 2.0 10.0 0.00 0.00 0.00 41 1011.1
20260503184041 57 45 3.0 10.0 0.00 0.00 0.00 40 1011.1
20260503183542 57 172 3.0 10.0 0.00 0.00 0.00 37 1011.2
20260503183040 57 207 3.0 10.0 0.00 0.00 0.00 39 1011.2
20260503182609 57 215 2.0 10.0 0.00 0.00 0.00 39 1011.0
20260503182554 57 195 3.0 10.0 0.00 0.00 0.00 38 1011.1
20260503181539 57 45 2.0 9.0 0.00 0.00 0.00 41 1011.1
20260503181040 57 5 3.0 9.0 0.00 0.00 0.00 40 1011.1
20260503180534 56 150 3.0 9.0 0.00 0.00 0.00 39 1011.3
20260503180025 57 91 3.0 11.0 0.00 0.00 0.00 40 1011.2
20260503175518 56 242 3.0 11.0 0.00 0.00 0.00 41 1011.1
20260503175239 56 234 2.0 11.0 0.00 0.00 0.00 43 1011.3
20260503174502 55 187 2.0 11.0 0.00 0.00 0.00 42 1011.3
20260503174223 55 178 3.0 12.0 0.00 0.00 0.00 45 1011.5
20260503173711 54 205 3.0 12.0 0.00 0.00 0.00 46 1011.4
20260503172940 53 155 3.0 10.0 0.00 0.00 0.00 45 1011.6
20260503172433 54 137 3.0 11.0 0.00 0.00 0.00 46 1011.6
20260503171928 53 198 3.0 11.0 0.00 0.00 0.00 44 1011.6
20260503171418 53 175 3.0 11.0 0.00 0.00 0.00 43 1011.6
20260503171359 53 31 3.0 13.0 0.00 0.00 0.00 44 1011.7
20260503170406 52 70 3.0 13.0 0.00 0.00 0.00 45 1011.7
20260503150616 51 39 3.0 12.0 0.00 0.00 0.00 44 1012.1
20260503150117 51 57 3.0 12.0 0.00 0.00 0.00 43 1012.1
20260503131336 49 87 3.0 10.0 0.00 0.00 0.00 55 1012.1
20260503130825 49 77 2.0 10.0 0.00 0.00 0.00 56 1012.0
20260503130320 49 195 2.0 9.0 0.00 0.00 0.00 58 1012.1
20260503110629 43 200 2.0 11.0 0.00 0.00 0.00 64 1011.5
20260503110141 43 70 2.0 11.0 0.00 0.00 0.00 64 1011.4
20260503100119 43 64 1.0 5.0 0.00 0.00 0.00 62 1010.8
20260503081111 45 66 1.0 5.0 0.00 0.00 0.00 59 1010.8
20260503080612 45 28 2.0 5.0 0.00 0.00 0.00 59 1010.7
20260503080117 45 44 1.0 5.0 0.00 0.00 0.00 59 1010.7
20260503072613 45 86 0.0 3.0 0.00 0.00 0.00 58 1010.5
20260503072105 45 86 0.0 3.0 0.00 0.00 0.00 59 1010.3
20260503071557 45 86 0.0 3.0 0.00 0.00 0.00 58 1010.4
20260503071051 45 86 0.0 3.0 0.00 0.00 0.00 58 1010.4
20260503070545 45 179 0.0 2.0 0.00 0.00 0.00 58 1010.5
20260503054854 48 86 1.0 6.0 0.00 0.00 0.00 52 1010.8
20260503054344 48 105 2.0 7.0 0.00 0.00 0.00 51 1010.8
20260503053839 48 205 1.0 7.0 0.00 0.00 0.00 51 1010.9
20260503053331 48 81 1.0 5.0 0.00 0.00 0.00 51 1011.0
20260503053053 48 85 1.0 8.0 0.00 0.00 0.00 51 1010.9
20260503052314 48 30 2.0 8.0 0.00 0.00 0.00 51 1011.0
20260503051808 48 98 2.0 8.0 0.00 0.00 0.00 50 1011.1
20260503051259 48 295 2.0 8.0 0.00 0.00 0.00 50 1011.2
20260503050753 48 81 1.0 5.0 0.00 0.00 0.00 50 1011.1
20260503050247 48 82 1.0 4.0 0.00 0.00 0.00 50 1011.0
20260503045737 49 49 1.0 4.0 0.00 0.00 0.00 50 1011.1
20260503045231 49 47 1.0 4.0 0.00 0.00 0.00 50 1011.1
20260503044724 49 111 1.0 3.0 0.00 0.00 0.00 50 1011.2
20260503044214 49 82 1.0 6.0 0.00 0.00 0.00 49 1011.2
20260503043709 49 82 1.0 6.0 0.00 0.00 0.00 49 1011.3
20260503043204 49 42 2.0 8.0 0.00 0.00 0.00 48 1011.3
20260503042653 49 84 1.0 8.0 0.00 0.00 0.00 48 1011.4
20260503042147 49 46 0.0 3.0 0.00 0.00 0.00 48 1011.3
20260503041641 49 46 0.0 3.0 0.00 0.00 0.00 48 1011.4
20260503041131 49 51 1.0 3.0 0.00 0.00 0.00 49 1011.4
20260503040851 49 51 1.0 3.0 0.00 0.00 0.00 48 1011.3
20260503040132 50 90 1.0 3.0 0.00 0.00 0.00 48 1011.2
20260503035609 50 183 1.0 4.0 0.00 0.00 0.00 48 1011.2
20260503035102 50 184 1.0 4.0 0.00 0.00 0.00 47 1011.2
20260503034821 50 195 1.0 7.0 0.00 0.00 0.00 48 1011.3